Content
SEND FEEDBACK

Daily
Averages
Monthly
Summary
United States of America

SOUTH LAKE TAHOE - AIRPORT, CALIFORNIA


Home > North America > United States > California
Elevation: 1905 meters     Latitude: 38 54N     Longitude: 120 00W

WEATHER
 
SELECT A DAY
Number of Records: 176,518;   Date Range: 1/1/95 - 9/30/14
 
SHARE

PRINT THIS DATA

[ ← Previous Day ]
WEATHER ALMANAC - 16 FEBRUARY, 2014
[ Next Day → ]
[ °F ]   °C
Weather ElementAverageHighLow
Temperature3.1 °C10.6 °C (2:53 pm)-3.3 °C (11:53 pm)
Dewpoint-1.8 °C1.1 °C (8:53 am)-6.7 °C (11:53 pm)
Humidity72.6 %89 % (5:08 am)39 % (11:53 am)
Barometer1017.3 hPa1022.7 hPa (8:53 pm)1011.9 hPa (2:53 am)
Wind Speed17.7 km/h31.5 km/h (2:53 am)
Wind Gust62.9 km/h (2:53 am)
Weather ElementAverage
Visibility10.9 km
Wind DirectionS (175.6 °)

Weather ElementTotal
Precipitation8.89 mm
Heating Degree Days14.7 (Base 18.3)
Averaged from 41 records on 16 February, 2014
WEATHER CONDITIONS BREAKOUT
WIND DIRECTION BREAKOUT
WEATHER BY HOUR - 16 FEBRUARY, 2014
[ °F ]   °C
Local TimeTemperatureDewpointHumidityBarometerVisibilityWind DirectionWind SpeedGust SpeedPrecipitationEventsConditions
12:16 AM1.7 °C-2.8 °C72 %1016.9 hPa3.2 kmSouth (190°)25.9 km/h35.2 km/h0.25 mmSnowLight Snow
12:24 AM1.1 °C-2.8 °C75 %1016.9 hPa2.4 kmSouth (190°)27.8 km/h53.8 km/h0.25 mmSnowLight Snow
12:31 AM1.1 °C-2.2 °C79 %1016.6 hPa1.3 kmSouth (190°)27.8 km/h0.25 mmSnowLight Snow
12:37 AM0.6 °C-1.7 °C85 %1015.9 hPa1.3 kmSSW (200°)22.2 km/h38.9 km/h0.51 mmSnowLight Snow
12:45 AM0.6 °C-1.7 °C85 %1016.3 hPa1.3 kmSW (220°)18.5 km/h33.3 km/h0.51 mmSnowLight Snow
12:48 AM1 °C-2 °C81 %1016.6 hPa1.6 kmSW (220°)18.5 km/h35.2 km/h0.51 mmSnowLight Snow
12:53 AM1.1 °C-1.7 °C82 %1013.9 hPa1.6 kmSSW (200°)18.5 km/h35.2 km/h0.51 mmSnowLight Snow
1:22 AM1.1 °C-1.1 °C85 %1015.6 hPa4.8 kmSSW (210°)14.8 km/h0.51 mmSnowLight Snow
1:26 AM1.7 °C-1.1 °C82 %1015.2 hPa9.7 kmSSW (200°)14.8 km/h0.51 mmHaze
1:44 AM2.2 °C-1.7 °C76 %1015.2 hPa4 kmSouth (190°)27.8 km/h33.3 km/h0.51 mmSnowLight Snow
1:53 AM2.2 °C-1.1 °C79 %1012.5 hPa4 kmSSW (200°)24.1 km/h37 km/h0.51 mmSnowLight Snow
1:59 AM2.2 °C-1.1 °C79 %1015.2 hPa8 kmSSW (200°)18.5 km/h35.2 km/h0.25 mmSnowLight Snow
2:24 AM2.2 °C-0.6 °C82 %1015.2 hPa6.4 kmSouth (190°)18.5 km/h38.9 km/h0.51 mmSnowLight Snow
2:31 AM2.8 °C-0.6 °C79 %1014.9 hPa11.3 kmSouth (180°)25.9 km/h40.7 km/h0.51 mmRainLight Rain
2:53 AM3.9 °C-0.6 °C73 %1011.9 hPa14.5 kmSSW (210°)31.5 km/h62.9 km/h0.76 mmRainLight Rain
3:53 AM3.3 °C0 °C79 %1012.5 hPa11.3 kmSSW (210°)18.5 km/h42.6 km/h0.51 mmRainLight Rain
4:53 AM3.3 °C0.6 °C83 %1013.9 hPa14.5 kmSSW (200°)18.5 km/h35.2 km/h0.25 mmSnowLight Snow
5:08 AM2.2 °C0.6 °C89 %1016.3 hPa6.4 kmSSW (200°)20.4 km/h0.25 mmSnowLight Snow
5:18 AM2.8 °C-0.6 °C79 %1016.6 hPa12.9 kmSSW (210°)18.5 km/h35.2 km/h0.25 mmSnowLight Snow
5:33 AM2.8 °C-0.6 °C79 %1016.6 hPa4 kmSSW (210°)14.8 km/h40.7 km/h0.25 mmSnowLight Snow
5:43 AM2.8 °C0 °C82 %1016.6 hPa8 kmSSW (210°)16.7 km/h37 km/h0.25 mmSnowLight Snow
5:53 AM2.8 °C0 °C82 %1015.6 hPa12.9 kmSSW (200°)20.4 km/h35.2 km/h0.25 mmSnowLight Snow
6:44 AM2.2 °C-0.6 °C82 %1016.9 hPa16.1 kmSSW (200°)20.4 km/h27.8 km/h0 mmScattered Clouds
6:53 AM2.2 °C0 °C86 %1016.3 hPa16.1 kmSouth (190°)20.4 km/h0 mmPartly Cloudy
7:53 AM3.3 °C0 °C79 %1016.6 hPa16.1 kmSSW (200°)22.2 km/h37 km/hClear
8:53 AM3.3 °C1.1 °C86 %1018.3 hPa16.1 kmSSE (150°)14.8 km/hClear
9:53 AM5 °C-2.2 °C60 %1019.3 hPa16.1 kmSSE (150°)20.4 km/h25.9 km/hClear
10:53 AM7.2 °C-4.4 °C44 %1019 hPa16.1 kmSouth (180°)22.2 km/h31.5 km/hClear
11:53 AM8.3 °C-5 °C39 %1019.6 hPa16.1 kmSouth (190°)20.4 km/hClear
12:53 PM8.9 °C-3.3 °C42 %1020 hPa16.1 kmSouth (190°)20.4 km/hClear
1:53 PM9.4 °C-2.2 °C44 %1019.3 hPa16.1 kmSouth (170°)18.5 km/hClear
2:53 PM10.6 °C-2.2 °C41 %1019 hPa16.1 kmSouth (180°)24.1 km/hClear
3:53 PM10.6 °C-2.2 °C41 %1019 hPa16.1 kmSSW (200°)16.7 km/h37 km/hClear
4:53 PM8.9 °C0 °C54 %1020 hPa16.1 kmSSW (200°)14.8 km/hClear
5:53 PM5.6 °C0.6 °C70 %1020.3 hPa16.1 kmVariable5.6 km/hClear
6:53 PM2.8 °C-3.3 °C65 %1021.7 hPa16.1 kmSouth (190°)11.1 km/hClear
7:53 PM0.6 °C-3.3 °C75 %1022.4 hPa16.1 kmCalmClear
8:53 PM-1.1 °C-5.6 °C72 %1022.7 hPa16.1 kmSouth (180°)7.4 km/hClear
9:53 PM-1.7 °C-5.6 °C75 %1022.7 hPa16.1 kmCalmClear
10:53 PM-2.2 °C-6.1 °C75 %1022.4 hPa16.1 kmCalmClear
11:53 PM-3.3 °C-6.7 °C78 %1022.4 hPa16.1 kmSSW (200°)5.6 km/hClear
Hourly data recorded from KTVL, located 0 kilometers away from South Lake Tahoe - Airport, California







STORIES FROM OUR PARTNERS